QPF
0.00 0.00 0.00 0.00 0.00 0.00 0.00 0.00 0.00 0.00 0.00 0.00 0.00 0.00 0.00 0.00 0.00 0.00 0.00 0.00 0.00 0.00 0.01 0.01 0.00 0.01 0.02 0.02 0.03 0.04 0.06 0.06 0.08 0.12 0.13 0.10 0.07 0.07 0.08 0.10 0.08 0.08 0.09
0.00 0.00 0.00 0.00 0.00 0.00 0.00 0.00 0.00 0.00 0.00 0.00 0.00 0.00 0.00 0.00 0.00 0.00 0.00 0.00 0.00 0.01 0.01 0.01 0.01 0.01 0.01 0.02 0.03 0.05 0.06 0.07 0.08 0.11 0.16 0.13 0.09 0.06 0.05 0.07 0.07 0.08 0.10
0.00 0.00 0.00 0.00 0.00 0.00 0.00 0.00 0.00 0.00 0.00 0.00 0.00 0.00 0.00 0.00 0.00 0.00 0.00 0.00 0.01 0.01 0.01 0.02 0.02 0.01 0.01 0.02 0.02 0.03 0.04 0.05 0.07 0.08 0.13 0.14 0.10 0.07 0.04 0.04 0.04 0.05 0.07
0.00 0.00 0.00 0.00 0.00 0.00 0.00 0.00 0.00 0.00 0.00 0.00 0.00 0.00 0.00 0.00 0.00 0.00 0.00 0.00 0.01 0.01 0.01 0.01 0.02 0.02 0.03 0.03 0.03 0.03 0.04 0.04 0.05 0.07 0.09 0.10 0.09 0.08 0.06 0.04 0.04 0.05 0.05
0.00 0.00 0.00 0.00 0.00 0.00 0.00 0.00 0.00 0.00 0.00 0.00 0.00 0.00 0.01 0.01 0.01 0.01 0.00 0.01 0.01 0.01 0.00 0.01 0.01 0.02 0.01 0.02 0.02 0.02 0.03 0.03 0.04 0.06 0.08 0.09 0.09 0.07 0.06 0.06 0.05 0.05 0.04
0.00 0.00 0.00 0.00 0.00 0.00 0.00 0.00 0.00 0.00 0.00 0.00 0.00 0.00 0.01 0.01 0.01 0.01 0.01 0.01 0.02 0.02 0.01 0.01 0.01 0.01 0.01 0.01 0.01 0.01 0.02 0.03 0.05 0.05 0.05 0.08 0.09 0.09 0.06 0.05 0.06 0.06 0.05
0.00 0.00 0.00 0.00 0.00 0.00 0.00 0.00 0.00 0.00 0.00 0.00 0.00 0.00 0.00 0.01 0.00 0.01 0.01 0.01 0.01 0.01 0.01 0.02 0.01 0.01 0.02 0.01 0.01 0.01 0.02 0.03 0.04 0.05 0.06 0.05 0.04 0.05 0.06 0.05 0.04 0.05 0.06
0.00 0.00 0.00 0.00 0.00 0.00 0.00 0.00 0.00 0.00 0.00 0.00 0.00 0.00 0.00 0.00 0.00 0.00 0.00 0.00 0.01 0.01 0.01 0.01 0.01 0.01 0.01 0.01 0.01 0.01 0.01 0.02 0.02 0.03 0.04 0.05 0.04 0.03 0.04 0.04 0.04 0.03 0.05
0.00 0.00 0.00 0.00 0.00 0.00 0.00 0.00 0.00 0.00 0.00 0.00 0.00 0.00 0.00 0.00 0.00 0.00 0.00 0.00 0.00 0.01 0.01 0.01 0.01 0.01 0.01 0.02 0.01 0.01 0.02 0.03 0.03 0.03 0.03 0.04 0.04 0.03 0.02 0.02 0.03 0.03 0.04
0.00 0.00 0.00 0.00 0.00 0.00 0.00 0.00 0.00 0.00 0.00 0.00 0.00 0.00 0.00 0.00 0.00 0.00 0.00 0.00 0.01 0.01 0.01 0.01 0.01 0.01 0.01 0.02 0.01 0.01 0.02 0.04 0.03 0.03 0.03 0.03 0.03 0.02 0.01 0.01 0.02 0.02 0.03
0.00 0.00 0.00 0.00 0.00 0.00 0.00 0.00 0.00 0.00 0.00 0.00 0.00 0.00 0.00 0.00 0.00 0.00 0.00 0.00 0.01 0.00 0.00 0.01 0.01 0.02 0.02 0.01 0.02 0.02 0.02 0.03 0.02 0.02 0.03 0.03 0.02 0.02 0.01 0.01 0.02 0.02 0.02
0.00 0.00 0.00 0.00 0.00 0.00 0.00 0.00 0.00 0.00 0.00 0.00 0.00 0.00 0.00 0.00 0.00 0.00 0.00 0.00 0.01 0.00 0.01 0.01 0.01 0.02 0.02 0.02 0.03 0.03 0.02 0.03 0.03 0.02 0.02 0.02 0.01 0.01 0.01 0.01 0.01 0.02 0.02
0.00 0.00 0.00 0.00 0.00 0.00 0.00 0.00 0.00 0.00 0.00 0.00 0.00 0.00 0.00 0.00 0.00 0.00 0.00 0.00 0.01 0.01 0.01 0.01 0.01 0.01 0.02 0.03 0.03 0.03 0.03 0.03 0.02 0.02 0.02 0.02 0.01 0.01 0.01 0.01 0.01 0.02 0.02
0.00 0.00 0.00 0.00 0.00 0.00 0.00 0.00 0.00 0.00 0.00 0.00 0.00 0.00 0.00 0.00 0.00 0.00 0.00 0.00 0.00 0.01 0.01 0.01 0.03 0.03 0.04 0.03 0.03 0.03 0.03 0.02 0.01 0.01 0.01 0.01 0.01 0.01 0.01 0.01 0.01 0.01 0.02
0.00 0.00 0.00 0.00 0.00 0.00 0.00 0.00 0.00 0.00 0.00 0.00 0.00 0.00 0.00 0.00 0.00 0.00 0.00 0.00 0.00 0.01 0.01 0.01 0.01 0.02 0.03 0.04 0.04 0.02 0.02 0.02 0.02 0.01 0.01 0.01 0.01 0.01 0.01 0.01 0.01 0.01 0.01
0.00 0.00 0.00 0.00 0.00 0.00 0.00 0.00 0.00 0.00 0.00 0.00 0.00 0.00 0.00 0.00 0.00 0.00 0.00 0.00 0.00 0.00 0.00 0.00 0.01 0.01 0.02 0.03 0.04 0.02 0.01 0.01 0.01 0.01 0.02 0.01 0.01 0.02 0.02 0.01 0.01 0.01 0.01
0.00 0.00 0.00 0.00 0.00 0.00 0.00 0.00 0.00 0.00 0.00 0.00 0.00 0.00 0.00 0.00 0.00 0.00 0.00 0.00 0.00 0.00 0.00 0.01 0.01 0.01 0.02 0.02 0.03 0.03 0.03 0.02 0.02 0.02 0.02 0.01 0.01 0.01 0.01 0.01 0.01 0.01 0.01
0.00 0.00 0.00 0.00 0.00 0.00 0.00 0.00 0.00 0.00 0.00 0.00 0.00 0.00 0.00 0.00 0.00 0.00 0.00 0.00 0.00 0.00 0.00 0.00 0.01 0.01 0.01 0.02 0.02 0.04 0.03 0.01 0.01 0.02 0.02 0.02 0.01 0.01 0.00 0.00 0.00 0.00 0.01
0.00 0.00 0.00 0.00 0.00 0.00 0.00 0.00 0.00 0.00 0.00 0.00 0.00 0.00 0.00 0.00 0.00 0.00 0.00 0.00 0.00 0.00 0.00 0.00 0.00 0.00 0.01 0.02 0.02 0.02 0.02 0.01 0.00 0.00 0.01 0.01 0.02 0.02 0.01 0.00 0.00 0.01 0.01
0.00 0.00 0.00 0.00 0.00 0.00 0.00 0.00 0.00 0.00 0.00 0.00 0.00 0.00 0.00 0.00 0.00 0.00 0.00 0.00 0.00 0.00 0.00 0.00 0.00 0.00 0.01 0.02 0.01 0.01 0.01 0.01 0.00 0.00 0.00 0.01 0.02 0.02 0.01 0.02 0.02 0.02 0.01
0.00 0.00 0.00 0.00 0.00 0.00 0.00 0.00 0.00 0.00 0.00 0.00 0.00 0.00 0.00 0.00 0.00 0.00 0.00 0.00 0.00 0.00 0.00 0.00 0.00 0.00 0.00 0.00 0.01 0.01 0.02 0.01 0.01 0.01 0.01 0.01 0.02 0.03 0.03 0.03 0.03 0.03 0.02
0.00 0.00 0.00 0.00 0.00 0.00 0.00 0.00 0.00 0.00 0.00 0.00 0.00 0.00 0.00 0.00 0.00 0.00 0.00 0.00 0.00 0.00 0.00 0.00 0.00 0.00 0.00 0.00 0.00 0.01 0.01 0.02 0.01 0.01 0.01 0.02 0.04 0.04 0.03 0.02 0.02 0.03 0.03
0.00 0.00 0.00 0.00 0.00 0.00 0.00 0.00 0.00 0.00 0.00 0.00 0.00 0.00 0.00 0.00 0.00 0.00 0.00 0.00 0.00 0.00 0.00 0.00 0.00 0.00 0.01 0.01 0.01 0.00 0.00 0.00 0.01 0.01 0.01 0.01 0.02 0.03 0.02 0.02 0.02 0.02 0.02
0.00 0.00 0.00 0.00 0.00 0.00 0.00 0.00 0.00 0.00 0.00 0.00 0.00 0.00 0.00 0.00 0.00 0.00 0.00 0.00 0.00 0.00 0.00 0.00 0.00 0.00 0.00 0.00 0.00 0.01 0.01 0.00 0.00 0.00 0.00 0.01 0.01 0.01 0.01 0.01 0.01 0.01 0.01
0.00 0.00 0.00 0.00 0.00 0.00 0.00 0.00 0.00 0.00 0.00 0.00 0.00 0.00 0.00 0.00 0.00 0.00 0.00 0.00 0.00 0.00 0.00 0.00 0.00 0.00 0.00 0.00 0.00 0.00 0.00 0.01 0.00 0.00 0.00 0.01 0.01 0.01 0.00 0.00 0.00 0.01 0.01
0.00 0.00 0.00 0.00 0.00 0.00 0.00 0.00 0.00 0.00 0.00 0.00 0.00 0.00 0.00 0.00 0.00 0.00 0.00 0.00 0.00 0.00 0.00 0.00 0.00 0.00 0.00 0.00 0.00 0.00 0.00 0.00 0.01 0.01 0.00 0.00 0.00 0.00 0.00 0.00 0.00 0.00 0.00
MSLP
1014.40 1014.51 1014.61 1014.67 1014.69 1014.67 1014.65 1014.65 1014.69 1014.77 1014.88 1014.99 1015.06 1015.08 1015.00 1014.83 1014.58 1014.27 1013.96 1013.67 1013.43 1013.26 1013.14 1013.06 1012.99 1012.89 1012.76 1012.58 1012.37 1012.15 1011.95 1011.79 1011.69 1011.64 1011.63 1011.62 1011.61 1011.57 1011.50 1011.40 1011.29 1011.21 1011.19
1014.46 1014.62 1014.73 1014.80 1014.80 1014.77 1014.72 1014.71 1014.75 1014.85 1014.99 1015.15 1015.26 1015.30 1015.24 1015.05 1014.77 1014.41 1014.04 1013.70 1013.42 1013.22 1013.09 1013.02 1012.96 1012.89 1012.77 1012.61 1012.40 1012.19 1011.99 1011.84 1011.75 1011.72 1011.73 1011.76 1011.77 1011.75 1011.68 1011.57 1011.45 1011.33 1011.25
1014.48 1014.68 1014.83 1014.91 1014.92 1014.86 1014.80 1014.77 1014.81 1014.92 1015.08 1015.27 1015.43 1015.50 1015.45 1015.27 1014.97 1014.59 1014.18 1013.80 1013.48 1013.25 1013.10 1013.02 1012.96 1012.89 1012.79 1012.63 1012.44 1012.24 1012.06 1011.92 1011.86 1011.85 1011.89 1011.95 1011.99 1011.99 1011.93 1011.82 1011.67 1011.52 1011.40
1014.44 1014.70 1014.89 1015.00 1015.01 1014.96 1014.88 1014.82 1014.84 1014.95 1015.13 1015.34 1015.53 1015.64 1015.63 1015.47 1015.18 1014.80 1014.37 1013.96 1013.61 1013.35 1013.18 1013.08 1013.02 1012.95 1012.85 1012.71 1012.53 1012.35 1012.18 1012.06 1012.01 1012.03 1012.09 1012.17 1012.23 1012.24 1012.19 1012.07 1011.91 1011.73 1011.57
1014.33 1014.64 1014.90 1015.05 1015.08 1015.03 1014.93 1014.86 1014.85 1014.95 1015.12 1015.34 1015.56 1015.71 1015.74 1015.62 1015.36 1015.00 1014.59 1014.18 1013.82 1013.54 1013.35 1013.23 1013.16 1013.08 1012.99 1012.86 1012.69 1012.52 1012.37 1012.26 1012.22 1012.24 1012.30 1012.38 1012.44 1012.46 1012.40 1012.28 1012.11 1011.91 1011.72
1014.15 1014.53 1014.85 1015.05 1015.11 1015.07 1014.96 1014.87 1014.84 1014.90 1015.06 1015.28 1015.51 1015.69 1015.77 1015.71 1015.50 1015.19 1014.81 1014.42 1014.07 1013.79 1013.59 1013.46 1013.38 1013.30 1013.21 1013.08 1012.93 1012.77 1012.62 1012.51 1012.45 1012.45 1012.49 1012.55 1012.59 1012.59 1012.53 1012.40 1012.22 1012.01 1011.80
1013.91 1014.36 1014.74 1015.00 1015.10 1015.08 1014.97 1014.85 1014.79 1014.82 1014.95 1015.16 1015.40 1015.61 1015.72 1015.72 1015.58 1015.32 1015.00 1014.65 1014.32 1014.06 1013.86 1013.74 1013.65 1013.58 1013.49 1013.37 1013.23 1013.07 1012.91 1012.78 1012.69 1012.65 1012.65 1012.66 1012.66 1012.63 1012.55 1012.41 1012.22 1012.01 1011.79
1013.64 1014.14 1014.59 1014.90 1015.05 1015.04 1014.94 1014.81 1014.72 1014.72 1014.82 1015.01 1015.24 1015.46 1015.61 1015.65 1015.57 1015.38 1015.11 1014.82 1014.53 1014.30 1014.12 1014.00 1013.93 1013.86 1013.78 1013.68 1013.53 1013.37 1013.20 1013.04 1012.90 1012.81 1012.74 1012.70 1012.64 1012.58 1012.47 1012.32 1012.14 1011.93 1011.72
1013.36 1013.90 1014.40 1014.76 1014.94 1014.97 1014.88 1014.74 1014.63 1014.60 1014.67 1014.83 1015.05 1015.27 1015.44 1015.51 1015.48 1015.35 1015.14 1014.90 1014.67 1014.47 1014.32 1014.22 1014.16 1014.11 1014.04 1013.94 1013.80 1013.63 1013.44 1013.24 1013.06 1012.91 1012.78 1012.67 1012.57 1012.46 1012.33 1012.18 1012.00 1011.81 1011.61
1013.08 1013.65 1014.17 1014.56 1014.78 1014.84 1014.77 1014.64 1014.53 1014.48 1014.53 1014.66 1014.85 1015.06 1015.23 1015.32 1015.33 1015.24 1015.08 1014.90 1014.71 1014.55 1014.43 1014.36 1014.31 1014.27 1014.21 1014.12 1013.98 1013.80 1013.60 1013.38 1013.16 1012.96 1012.78 1012.62 1012.47 1012.33 1012.19 1012.04 1011.87 1011.70 1011.51
1012.81 1013.37 1013.90 1014.31 1014.55 1014.63 1014.59 1014.49 1014.39 1014.35 1014.38 1014.50 1014.67 1014.85 1015.01 1015.11 1015.13 1015.07 1014.95 1014.80 1014.65 1014.53 1014.44 1014.39 1014.36 1014.33 1014.28 1014.19 1014.06 1013.88 1013.66 1013.43 1013.19 1012.96 1012.75 1012.55 1012.38 1012.22 1012.07 1011.92 1011.77 1011.61 1011.45
1012.53 1013.07 1013.57 1013.97 1014.23 1014.34 1014.34 1014.28 1014.22 1014.20 1014.24 1014.35 1014.50 1014.67 1014.81 1014.90 1014.92 1014.87 1014.78 1014.66 1014.54 1014.45 1014.38 1014.35 1014.32 1014.30 1014.25 1014.17 1014.04 1013.86 1013.65 1013.41 1013.16 1012.93 1012.70 1012.50 1012.32 1012.15 1011.99 1011.84 1011.69 1011.54 1011.38
1012.22 1012.71 1013.17 1013.54 1013.80 1013.94 1013.99 1013.99 1013.99 1014.01 1014.09 1014.21 1014.36 1014.51 1014.63 1014.70 1014.72 1014.68 1014.60 1014.50 1014.41 1014.33 1014.28 1014.26 1014.24 1014.21 1014.16 1014.07 1013.94 1013.76 1013.56 1013.33 1013.10 1012.87 1012.66 1012.45 1012.27 1012.09 1011.92 1011.75 1011.58 1011.42 1011.24
1011.84 1012.26 1012.67 1013.01 1013.26 1013.43 1013.54 1013.61 1013.69 1013.78 1013.91 1014.06 1014.22 1014.36 1014.47 1014.53 1014.54 1014.50 1014.44 1014.36 1014.29 1014.23 1014.19 1014.16 1014.14 1014.09 1014.03 1013.92 1013.78 1013.61 1013.41 1013.20 1013.00 1012.79 1012.59 1012.40 1012.20 1012.01 1011.81 1011.60 1011.39 1011.17 1010.96
1011.37 1011.72 1012.06 1012.36 1012.61 1012.82 1012.99 1013.15 1013.32 1013.50 1013.69 1013.89 1014.07 1014.22 1014.33 1014.38 1014.39 1014.36 1014.31 1014.25 1014.20 1014.15 1014.12 1014.08 1014.04 1013.97 1013.88 1013.75 1013.60 1013.42 1013.23 1013.04 1012.86 1012.68 1012.49 1012.30 1012.09 1011.86 1011.61 1011.33 1011.04 1010.74 1010.46
1010.81 1011.08 1011.36 1011.63 1011.88 1012.13 1012.38 1012.63 1012.90 1013.17 1013.44 1013.69 1013.90 1014.07 1014.18 1014.24 1014.25 1014.24 1014.20 1014.17 1014.13 1014.10 1014.07 1014.02 1013.96 1013.86 1013.73 1013.57 1013.39 1013.20 1013.02 1012.85 1012.68 1012.52 1012.34 1012.14 1011.91 1011.62 1011.29 1010.91 1010.51 1010.11 1009.72
1010.16 1010.37 1010.60 1010.84 1011.11 1011.40 1011.73 1012.07 1012.44 1012.80 1013.14 1013.44 1013.69 1013.88 1014.01 1014.08 1014.10 1014.11 1014.10 1014.09 1014.07 1014.05 1014.02 1013.96 1013.86 1013.72 1013.56 1013.36 1013.16 1012.96 1012.77 1012.61 1012.46 1012.31 1012.14 1011.92 1011.64 1011.29 1010.86 1010.36 1009.84 1009.30 1008.80
1009.47 1009.62 1009.82 1010.06 1010.35 1010.69 1011.09 1011.52 1011.96 1012.40 1012.80 1013.15 1013.43 1013.64 1013.78 1013.86 1013.91 1013.94 1013.96 1013.97 1013.98 1013.97 1013.93 1013.85 1013.72 1013.55 1013.34 1013.10 1012.87 1012.66 1012.48 1012.32 1012.19 1012.05 1011.88 1011.64 1011.32 1010.89 1010.36 1009.75 1009.09 1008.42 1007.79
1008.78 1008.91 1009.09 1009.34 1009.65 1010.04 1010.50 1010.99 1011.50 1011.99 1012.43 1012.80 1013.10 1013.32 1013.47 1013.57 1013.64 1013.69 1013.74 1013.78 1013.80 1013.80 1013.76 1013.66 1013.50 1013.28 1013.04 1012.78 1012.52 1012.30 1012.13 1011.99 1011.88 1011.76 1011.59 1011.34 1010.98 1010.49 1009.88 1009.16 1008.38 1007.60 1006.86
1008.15 1008.27 1008.45 1008.71 1009.06 1009.48 1009.98 1010.51 1011.05 1011.56 1012.01 1012.39 1012.69 1012.91 1013.06 1013.18 1013.26 1013.34 1013.42 1013.48 1013.52 1013.52 1013.47 1013.35 1013.16 1012.92 1012.64 1012.36 1012.09 1011.88 1011.72 1011.61 1011.53 1011.44 1011.29 1011.04 1010.67 1010.15 1009.47 1008.68 1007.83 1006.96 1006.14
1007.61 1007.74 1007.93 1008.21 1008.57 1009.02 1009.53 1010.07 1010.61 1011.11 1011.55 1011.92 1012.20 1012.41 1012.56 1012.69 1012.79 1012.89 1012.99 1013.07 1013.12 1013.12 1013.06 1012.92 1012.70 1012.43 1012.14 1011.84 1011.59 1011.39 1011.26 1011.19 1011.15 1011.11 1011.00 1010.78 1010.42 1009.90 1009.21 1008.39 1007.50 1006.59 1005.74
1007.17 1007.31 1007.52 1007.81 1008.19 1008.64 1009.14 1009.66 1010.17 1010.64 1011.04 1011.37 1011.63 1011.82 1011.98 1012.11 1012.23 1012.36 1012.47 1012.57 1012.63 1012.62 1012.55 1012.38 1012.15 1011.86 1011.56 1011.26 1011.02 1010.85 1010.77 1010.75 1010.77 1010.78 1010.73 1010.56 1010.25 1009.76 1009.10 1008.30 1007.42 1006.52 1005.67
1006.80 1006.96 1007.19 1007.49 1007.87 1008.31 1008.78 1009.26 1009.72 1010.13 1010.48 1010.77 1010.99 1011.18 1011.33 1011.48 1011.62 1011.77 1011.90 1012.01 1012.08 1012.07 1011.98 1011.80 1011.55 1011.25 1010.94 1010.66 1010.44 1010.31 1010.27 1010.31 1010.39 1010.47 1010.48 1010.39 1010.14 1009.72 1009.12 1008.38 1007.56 1006.70 1005.89
1006.47 1006.66 1006.91 1007.22 1007.59 1008.00 1008.42 1008.84 1009.24 1009.59 1009.88 1010.12 1010.33 1010.50 1010.67 1010.83 1011.00 1011.18 1011.34 1011.46 1011.53 1011.52 1011.42 1011.23 1010.96 1010.67 1010.36 1010.10 1009.91 1009.81 1009.82 1009.91 1010.05 1010.19 1010.28 1010.25 1010.08 1009.74 1009.23 1008.59 1007.84 1007.07 1006.32
1006.13 1006.35 1006.62 1006.95 1007.30 1007.68 1008.06 1008.42 1008.74 1009.03 1009.27 1009.48 1009.67 1009.85 1010.04 1010.24 1010.44 1010.65 1010.84 1010.98 1011.06 1011.05 1010.94 1010.75 1010.48 1010.19 1009.90 1009.65 1009.49 1009.43 1009.47 1009.61 1009.79 1009.98 1010.12 1010.16 1010.07 1009.81 1009.40 1008.85 1008.21 1007.53 1006.87
1005.75 1006.02 1006.33 1006.66 1007.01 1007.36 1007.69 1008.00 1008.27 1008.50 1008.71 1008.90 1009.09 1009.29 1009.51 1009.75 1010.00 1010.25 1010.47 1010.63 1010.73 1010.72 1010.62 1010.44 1010.18 1009.90 1009.62 1009.40 1009.26 1009.23 1009.29 1009.45 1009.66 1009.88 1010.05 1010.14 1010.10 1009.92 1009.59 1009.13 1008.60 1008.02 1007.44
Thickness
5721 5720 5717 5714 5710 5705 5701 5697 5694 5691 5687 5684 5680 5677 5675 5674 5673 5671 5670 5668 5667 5667 5666 5666 5666 5667 5668 5670 5672 5675 5678 5682 5686 5689 5692 5698 5704 5709 5713 5718 5722 5725 5728
5718 5717 5715 5711 5707 5704 5700 5696 5692 5689 5686 5682 5679 5676 5673 5671 5670 5668 5667 5666 5664 5663 5663 5662 5662 5663 5664 5665 5667 5670 5672 5675 5680 5682 5683 5685 5691 5700 5707 5711 5715 5718 5722
5717 5715 5713 5710 5706 5702 5699 5697 5692 5689 5686 5682 5679 5676 5672 5670 5667 5665 5664 5663 5662 5661 5660 5660 5659 5660 5660 5661 5663 5665 5667 5669 5673 5677 5678 5678 5680 5688 5696 5702 5707 5711 5714
5720 5715 5712 5709 5706 5703 5700 5696 5692 5689 5686 5682 5678 5673 5669 5665 5664 5661 5660 5661 5660 5659 5658 5658 5657 5657 5657 5658 5659 5662 5663 5665 5667 5671 5675 5677 5680 5681 5684 5692 5698 5703 5707
5720 5717 5714 5711 5708 5705 5701 5697 5693 5689 5686 5682 5678 5673 5669 5666 5663 5662 5660 5659 5658 5658 5657 5656 5656 5655 5655 5655 5656 5658 5659 5662 5664 5666 5668 5671 5674 5677 5678 5680 5688 5694 5700
5721 5718 5716 5712 5708 5705 5701 5697 5693 5690 5686 5683 5678 5674 5670 5666 5663 5661 5659 5657 5656 5656 5655 5655 5654 5654 5653 5653 5654 5655 5657 5659 5661 5663 5665 5666 5668 5670 5673 5675 5679 5684 5692
5720 5717 5714 5711 5708 5705 5701 5697 5693 5690 5687 5683 5679 5675 5671 5667 5664 5661 5658 5656 5654 5654 5654 5653 5653 5652 5652 5652 5652 5653 5654 5656 5658 5660 5662 5664 5666 5668 5670 5672 5674 5678 5684
5721 5718 5715 5712 5708 5706 5702 5698 5694 5690 5688 5684 5680 5677 5673 5669 5665 5662 5659 5656 5654 5653 5653 5653 5652 5652 5651 5651 5651 5652 5653 5654 5655 5657 5658 5660 5663 5665 5667 5669 5670 5671 5675
5722 5719 5717 5713 5710 5707 5704 5700 5696 5692 5689 5685 5682 5678 5675 5671 5667 5664 5661 5658 5656 5655 5654 5653 5652 5651 5651 5651 5651 5650 5651 5652 5653 5654 5655 5657 5659 5661 5664 5666 5668 5668 5668
5723 5721 5718 5715 5712 5709 5706 5702 5698 5694 5690 5687 5683 5680 5676 5672 5669 5666 5662 5660 5657 5656 5654 5652 5651 5651 5650 5650 5650 5650 5650 5651 5651 5652 5653 5654 5656 5658 5660 5662 5664 5666 5667
5724 5722 5720 5717 5714 5710 5706 5702 5699 5695 5692 5688 5684 5681 5677 5674 5670 5667 5664 5661 5658 5656 5655 5653 5652 5651 5650 5649 5649 5649 5649 5649 5650 5650 5651 5652 5653 5654 5656 5658 5660 5662 5664
5727 5724 5721 5717 5713 5710 5707 5703 5700 5696 5693 5690 5686 5682 5678 5675 5671 5668 5665 5662 5659 5658 5656 5654 5652 5651 5650 5650 5649 5649 5649 5648 5648 5648 5648 5649 5651 5651 5652 5654 5656 5657 5660
5727 5723 5720 5716 5713 5710 5708 5704 5701 5698 5695 5690 5686 5682 5679 5675 5672 5669 5666 5664 5661 5659 5657 5655 5653 5652 5651 5650 5650 5649 5648 5647 5647 5646 5646 5646 5647 5647 5648 5650 5651 5653 5656
5726 5723 5719 5716 5714 5711 5708 5705 5702 5699 5695 5691 5687 5683 5680 5676 5673 5670 5667 5665 5662 5660 5658 5656 5654 5653 5652 5651 5651 5650 5648 5647 5646 5646 5645 5645 5646 5646 5646 5647 5648 5649 5651
5726 5724 5721 5717 5714 5711 5708 5706 5703 5700 5696 5692 5687 5684 5681 5677 5674 5671 5668 5666 5663 5661 5659 5657 5655 5654 5654 5653 5652 5650 5649 5647 5646 5645 5645 5645 5646 5646 5646 5646 5646 5647 5647
5728 5726 5723 5719 5716 5713 5710 5706 5703 5700 5696 5692 5688 5685 5681 5678 5674 5671 5669 5666 5664 5661 5659 5657 5655 5654 5654 5655 5654 5652 5649 5647 5645 5644 5644 5644 5645 5645 5646 5646 5647 5647 5646
5731 5728 5725 5722 5719 5716 5712 5707 5704 5700 5695 5692 5688 5685 5681 5678 5675 5672 5669 5666 5664 5661 5659 5657 5655 5654 5654 5655 5654 5653 5650 5647 5646 5644 5643 5643 5644 5643 5643 5644 5645 5646 5647
5732 5730 5727 5723 5721 5717 5713 5709 5704 5699 5695 5691 5688 5685 5681 5678 5675 5671 5669 5666 5664 5661 5659 5658 5656 5654 5655 5655 5654 5652 5649 5647 5645 5644 5643 5642 5642 5642 5642 5642 5642 5643 5644
5736 5733 5729 5725 5721 5717 5713 5707 5702 5698 5694 5690 5687 5684 5681 5677 5674 5671 5669 5666 5664 5662 5660 5658 5656 5655 5654 5655 5654 5652 5648 5646 5645 5644 5643 5642 5641 5642 5642 5641 5640 5641 5642
5735 5731 5728 5724 5719 5716 5711 5706 5700 5696 5693 5691 5688 5685 5681 5677 5674 5671 5669 5666 5663 5662 5660 5658 5657 5655 5654 5654 5653 5652 5647 5645 5644 5643 5642 5642 5641 5642 5641 5639 5638 5638 5640
5733 5729 5725 5721 5717 5714 5709 5703 5699 5695 5694 5691 5687 5684 5680 5677 5674 5671 5668 5665 5663 5661 5659 5657 5656 5655 5654 5653 5653 5651 5647 5644 5643 5641 5640 5640 5641 5640 5640 5639 5637 5638 5638
5728 5725 5720 5716 5713 5710 5706 5701 5697 5696 5693 5689 5685 5682 5679 5676 5674 5669 5666 5664 5661 5659 5657 5655 5654 5654 5653 5652 5651 5650 5648 5646 5642 5641 5640 5639 5639 5638 5638 5637 5637 5637 5637
5723 5720 5716 5711 5707 5704 5702 5698 5696 5693 5689 5685 5682 5679 5676 5673 5670 5667 5664 5661 5659 5656 5654 5652 5651 5651 5651 5650 5650 5649 5647 5645 5642 5640 5639 5638 5637 5636 5635 5635 5635 5634 5633
5717 5714 5710 5706 5702 5699 5697 5696 5693 5690 5686 5681 5678 5674 5671 5669 5666 5664 5661 5658 5656 5653 5651 5649 5648 5647 5647 5646 5646 5644 5643 5642 5640 5637 5636 5635 5633 5632 5631 5631 5630 5630 5629
5711 5708 5705 5701 5698 5695 5692 5691 5688 5685 5680 5677 5673 5670 5667 5664 5662 5660 5657 5655 5654 5651 5649 5647 5645 5643 5642 5643 5643 5640 5639 5637 5635 5632 5630 5628 5626 5625 5625 5624 5624 5624 5624
5705 5701 5698 5696 5693 5690 5687 5685 5683 5680 5676 5671 5668 5664 5662 5659 5656 5654 5652 5651 5649 5648 5646 5645 5642 5641 5640 5640 5639 5638 5636 5634 5631 5626 5622 5620 5618 5617 5617 5616 5617 5617 5618